User: anonymous   Login
Location: Mentone
(34.5413°N, 85.5351°W)
Time: 02:00:05
(UTC-05:00)
Language:

Tiros 1 despin weight - Orbit

View from above orbital plane
View from above orbital plane
View from above satellite
View from above satellite

Ground track
Ground track

The orbit data is extracted from the following two-line orbital elements,

1 00115U 60002D   14298.92016299  .00004386  00000-0  58165-3 0  5004
2 00115 048.1650 097.3681 0036434 172.7522 320.3018 14.80969755907011
Epoch (UTC): 25 October 2014 22:05:02
Eccentricity: 0.0036434
inclination: 48.1650°
perigee height: 601 km
apogee height: 652 km
right ascension of ascending node: 97.3681°
argument of perigee: 172.7522°
revolutions per day: 14.80969755
mean anomaly at epoch: 320.3018°
orbit number at epoch: 90701

The dashed part of the orbit path shows where the satellite is in the earth's shadow,  

DLR